FLOCK 4BE-4

Last updated on Mon Sep 16 2024 00:02:03 GMT+0000 (Coordinated Universal Time)

1 60482U 24149Q 24258.90533413 .00072299 00000+0 34793-2 0 9995 2 60482 97.4420 334.0044 0004018 18.5948 341.5432 15.18469910 4419
UTC large
Height (km)
Speed (km/s)
/
Latitude / Longitude
Inclination (degrees)
Orbital Period (minutes)
Azimuth
Elevation
Range (km)
Doppler Factor

Next 0 passes for location: London (51.5072 / 0.1276)

Sorry there are no passes over London.